Location: Brotuna
(46.2000°N, 22.6000°E)
Time: 23:19:36
(UTC+00:00)

CZ-4C R/B - Pass Details

Date: 09 April 2020
Orbit: 637 x 1365 km, 63.4° (Epoch: 03 June)

Event Time Altitude Azimuth Distance (km) Brightness Sun altitude
Rises 19:03:27 0° 320° (NW) 3,679 7.0 -18.8°
Reaches altitude 10° 19:06:09 10° 330° (NNW) 2,840 5.9 -19.2°
Maximum altitude 19:12:21 35° 35° (NE) 1,789 3.9 -20.1°
Enters shadow 19:16:37 21° 84° (E) 2,470 4.2 -20.7°
